FW6031 Weather Reports


Display with metric or nautical units.
time (UTC)temp
F
wind
direction
speed
MPH
gust
MPH
rain 1hr
in
rain 24hr
in
rain mn
in
humidity
%
barometer
mb
20200401090539 99 77 11.0 16.0 0.00 0.00 0.00 10 1008.2
20200401090041 99 80 8.0 16.0 0.00 0.00 0.00 10 1008.2
20200401085536 98 75 10.0 17.0 0.00 0.00 0.00 11 1008.3
20200401085037 98 66 9.0 15.0 0.00 0.00 0.00 11 1008.4
20200401084622 98 67 9.0 15.0 0.00 0.00 0.00 11 1008.3
20200401083533 97 70 9.0 16.0 0.00 0.00 0.00 10 1008.6
20200401083126 97 66 9.0 16.0 0.00 0.00 0.00 11 1008.5
20200401083027 97 64 8.0 16.0 0.00 0.00 0.00 11 1008.5
20200401082517 96 31 9.0 14.0 0.00 0.00 0.00 11 1008.5
20200401082009 96 71 9.0 14.0 0.00 0.00 0.00 11 1008.7
20200401081535 96 39 8.0 12.0 0.00 0.00 0.00 11 1008.7
20200401081002 96 69 5.0 13.0 0.00 0.00 0.00 11 1008.5
20200401080123 96 46 6.0 14.0 0.00 0.00 0.00 11 1008.7
20200401075115 96 62 10.0 15.0 0.00 0.00 0.00 10 1008.5
20200401074702 96 89 7.0 10.0 0.00 0.00 0.00 10 1008.5
20200401073552 95 354 7.0 13.0 0.00 0.00 0.00 10 1008.3
20200401072549 95 54 5.0 8.0 0.00 0.00 0.00 10 1008.1
20200401072112 95 57 4.0 10.0 0.00 0.00 0.00 10 1008.0
20200401071714 95 16 6.0 12.0 0.00 0.00 0.00 10 1007.9
20200401070545 94 64 5.0 9.0 0.00 0.00 0.00 11 1007.7
20200401070140 94 359 5.0 9.0 0.00 0.00 0.00 11 1007.7
20200401065546 94 4 4.0 9.0 0.00 0.00 0.00 11 1007.5
20200401065038 93 33 5.0 9.0 0.00 0.00 0.00 11 1007.6
20200401064551 93 38 4.0 9.0 0.00 0.00 0.00 11 1007.5
20200401064057 93 29 5.0 10.0 0.00 0.00 0.00 11 1007.5
20200401063534 92 24 5.0 10.0 0.00 0.00 0.00 11 1007.3
20200401063123 92 27 3.0 10.0 0.00 0.00 0.00 11 1007.3
20200401062546 91 37 5.0 9.0 0.00 0.00 0.00 11 1007.2
20200401062044 91 22 5.0 11.0 0.00 0.00 0.00 12 1007.2
20200401061609 91 359 6.0 11.0 0.00 0.00 0.00 12 1007.1
20200401061027 90 16 6.0 10.0 0.00 0.00 0.00 12 1007.0
20200401060546 90 11 6.0 10.0 0.00 0.00 0.00 12 1007.0
20200401060030 89 359 5.0 9.0 0.00 0.00 0.00 12 1006.9
20200401055530 89 13 5.0 9.0 0.00 0.00 0.00 12 1006.9
20200401055026 88 346 5.0 9.0 0.00 0.00 0.00 13 1006.9
20200401054551 88 359 4.0 8.0 0.00 0.00 0.00 12 1006.9
20200401054019 89 28 3.0 9.0 0.00 0.00 0.00 12 1006.8
20200401053523 89 4 4.0 8.0 0.00 0.00 0.00 12 1006.7
20200401053110 88 359 5.0 9.0 0.00 0.00 0.00 12 1006.6
20200401052524 88 359 5.0 9.0 0.00 0.00 0.00 12 1006.6
20200401052039 88 4 5.0 9.0 0.00 0.00 0.00 12 1006.5
20200401051527 88 354 5.0 9.0 0.00 0.00 0.00 12 1006.5
20200401051013 89 12 4.0 9.0 0.00 0.00 0.00 12 1006.4
20200401050512 89 9 4.0 9.0 0.00 0.00 0.00 12 1006.4
20200401050038 89 359 5.0 9.0 0.00 0.00 0.00 12 1006.4
20200401045511 89 25 4.0 11.0 0.00 0.00 0.00 12 1006.4
20200401045011 89 345 6.0 11.0 0.00 0.00 0.00 12 1006.3
20200401044527 89 22 6.0 11.0 0.00 0.00 0.00 12 1006.2
20200401044011 89 10 5.0 9.0 0.00 0.00 0.00 12 1006.1
20200401043511 90 4 5.0 11.0 0.00 0.00 0.00 12 1006.0
20200401043011 90 20 7.0 13.0 0.00 0.00 0.00 12 1005.9
20200401042516 90 354 7.0 15.0 0.00 0.00 0.00 12 1005.9
20200401042025 90 359 8.0 15.0 0.00 0.00 0.00 12 1005.8
20200401041524 90 13 9.0 13.0 0.00 0.00 0.00 12 1005.7
20200401041011 90 4 9.0 16.0 0.00 0.00 0.00 12 1005.7
20200401040510 90 359 9.0 16.0 0.00 0.00 0.00 12 1005.7
20200401040055 90 359 9.0 14.0 0.00 0.00 0.00 12 1005.6
20200401035521 90 348 8.0 13.0 0.00 0.00 0.00 12 1005.7
20200401035010 90 24 10.0 15.0 0.00 0.00 0.00 12 1005.7
20200401034536 90 4 10.0 15.0 0.00 0.00 0.00 12 1005.8
20200401034015 90 4 9.0 14.0 0.00 0.00 0.00 12 1005.7
20200401033511 90 348 9.0 15.0 0.00 0.00 0.00 12 1005.7
20200401033104 90 4 10.0 15.0 0.00 0.00 0.00 12 1005.6
20200401032524 90 4 10.0 15.0 0.00 0.00 0.00 12 1005.6
20200401032009 90 10 10.0 14.0 0.00 0.00 0.00 12 1005.7
20200401031523 90 359 9.0 14.0 0.00 0.00 0.00 12 1005.6
20200401031014 91 13 8.0 15.0 0.00 0.00 0.00 12 1005.6
20200401030511 91 4 11.0 15.0 0.00 0.00 0.00 12 1005.5
20200401030034 91 359 8.0 14.0 0.00 0.00 0.00 11 1005.6
20200401025508 91 327 8.0 13.0 0.00 0.00 0.00 11 1005.5
20200401025008 91 349 8.0 12.0 0.00 0.00 0.00 11 1005.5
20200401024534 91 344 7.0 12.0 0.00 0.00 0.00 11 1005.5
20200401024006 91 28 7.0 13.0 0.00 0.00 0.00 11 1005.6
20200401023507 91 359 7.0 13.0 0.00 0.00 0.00 11 1005.6
20200401023030 91 4 8.0 11.0 0.00 0.00 0.00 11 1005.5
20200401022506 90 359 6.0 10.0 0.00 0.00 0.00 12 1005.5
20200401022021 90 349 5.0 8.0 0.00 0.00 0.00 12 1005.6
20200401021511 90 19 3.0 5.0 0.00 0.00 0.00 12 1005.6
20200401021005 89 8 3.0 6.0 0.00 0.00 0.00 12 1005.6
20200401020511 89 15 3.0 6.0 0.00 0.00 0.00 12 1005.7
20200401020007 89 359 3.0 5.0 0.00 0.00 0.00 12 1005.7
20200401015504 89 354 3.0 5.0 0.00 0.00 0.00 12 1005.7
20200401015014 89 4 2.0 4.0 0.00 0.00 0.00 12 1005.7
20200401014504 89 4 2.0 6.0 0.00 0.00 0.00 12 1005.8
20200401014003 89 12 3.0 6.0 0.00 0.00 0.00 12 1005.8
20200401013510 89 359 4.0 6.0 0.00 0.00 0.00 12 1005.8
20200401013002 90 4 3.0 5.0 0.00 0.00 0.00 12 1005.8
20200401012502 90 11 3.0 5.0 0.00 0.00 0.00 12 1005.9
20200401012100 90 8 3.0 5.0 0.00 0.00 0.00 12 1005.8
20200401011656 90 354 3.0 6.0 0.00 0.00 0.00 12 1005.9
20200401011100 90 347 3.0 6.0 0.00 0.00 0.00 12 1005.8
20200401010602 90 8 4.0 9.0 0.00 0.00 0.00 12 1005.8
20200401010103 90 359 3.0 6.0 0.00 0.00 0.00 12 1005.9
20200401005609 90 9 4.0 8.0 0.00 0.00 0.00 12 1005.8
20200401005058 90 4 4.0 6.0 0.00 0.00 0.00 12 1005.8
20200401004652 91 4 3.0 6.0 0.00 0.00 0.00 12 1005.9
20200401004123 91 4 3.0 8.0 0.00 0.00 0.00 11 1005.9
20200401003557 91 4 4.0 8.0 0.00 0.00 0.00 11 1005.9
20200401003120 91 12 4.0 9.0 0.00 0.00 0.00 11 1006.0
20200401002556 91 359 4.0 8.0 0.00 0.00 0.00 12 1006.0
20200401002059 91 354 4.0 10.0 0.00 0.00 0.00 12 1006.1
20200401001616 91 354 4.0 10.0 0.00 0.00 0.00 12 1006.1
20200401001055 91 8 3.0 7.0 0.00 0.00 0.00 12 1006.2
20200401000555 91 4 2.0 6.0 0.00 0.00 0.00 12 1006.3
20200401000055 91 13 3.0 6.0 0.00 0.00 0.00 12 1006.3
20200331235557 91 349 3.0 8.0 0.00 0.00 0.00 12 1006.4
20200331235054 91 4 4.0 8.0 0.00 0.00 0.00 12 1006.3
20200331234554 91 354 3.0 8.0 0.00 0.00 0.00 12 1006.4
20200331234059 90 345 4.0 6.0 0.00 0.00 0.00 12 1006.4
20200331233553 91 350 3.0 5.0 0.00 0.00 0.00 12 1006.3
20200331233250 91 349 2.0 6.0 0.00 0.00 0.00 12 1006.3
20200331232604 91 8 4.0 6.0 0.00 0.00 0.00 12 1006.3
20200331232123 91 359 2.0 5.0 0.00 0.00 0.00 12 1006.4
20200331231736 91 354 3.0 5.0 0.00 0.00 0.00 12 1006.3
20200331231051 91 354 3.0 8.0 0.00 0.00 0.00 12 1006.4
20200331230551 91 354 3.0 9.0 0.00 0.00 0.00 11 1006.4
20200331230140 92 359 3.0 9.0 0.00 0.00 0.00 11 1006.4
20200331225548 92 4 4.0 9.0 0.00 0.00 0.00 11 1006.3
20200331225052 92 16 3.0 7.0 0.00 0.00 0.00 11 1006.4
20200331224636 92 37 4.0 8.0 0.00 0.00 0.00 11 1006.4
20200331224046 92 4 3.0 6.0 0.00 0.00 0.00 11 1006.4
20200331223546 92 11 3.0 8.0 0.00 0.00 0.00 11 1006.5
20200331223119 92 4 3.0 6.0 0.00 0.00 0.00 11 1006.5
20200331222544 93 21 2.0 6.0 0.00 0.00 0.00 11 1006.5
20200331222044 93 23 3.0 6.0 0.00 0.00 0.00 11 1006.6
20200331221700 93 27 3.0 7.0 0.00 0.00 0.00 11 1006.6
20200331221043 93 16 2.0 6.0 0.00 0.00 0.00 11 1006.8
20200331220541 92 23 2.0 7.0 0.00 0.00 0.00 11 1006.8
20200331220113 92 12 4.0 6.0 0.00 0.00 0.00 12 1006.8
20200331215606 92 28 2.0 4.0 0.00 0.00 0.00 12 1007.0
20200331215048 92 8 2.0 4.0 0.00 0.00 0.00 12 1006.9
20200331214559 92 10 2.0 4.0 0.00 0.00 0.00 12 1007.0
20200331214108 92 11 2.0 4.0 0.00 0.00 0.00 12 1007.0
20200331213604 93 16 1.0 4.0 0.00 0.00 0.00 11 1007.0
20200331213049 93 16 2.0 4.0 0.00 0.00 0.00 11 1007.0
20200331212539 93 20 2.0 4.0 0.00 0.00 0.00 11 1007.1
20200331212039 94 21 2.0 4.0 0.00 0.00 0.00 11 1007.0
20200331211621 94 21 1.0 6.0 0.00 0.00 0.00 11 1007.0
20200331211041 94 10 2.0 6.0 0.00 0.00 0.00 11 1007.0
20200331210606 95 27 3.0 8.0 0.00 0.00 0.00 11 1007.0
20200331210041 95 12 3.0 9.0 0.00 0.00 0.00 11 1006.9
20200331205556 95 18 4.0 9.0 0.00 0.00 0.00 11 1006.9
20200331205038 95 19 3.0 6.0 0.00 0.00 0.00 11 1006.8
20200331204632 95 45 3.0 6.0 0.00 0.00 0.00 11 1006.9
20200331204038 95 24 3.0 8.0 0.00 0.00 0.00 10 1006.8
20200331203537 95 30 3.0 9.0 0.00 0.00 0.00 10 1006.7
20200331203042 95 51 3.0 9.0 0.00 0.00 0.00 10 1006.8
20200331202538 95 46 2.0 7.0 0.00 0.00 0.00 10 1006.6
20200331202040 96 58 3.0 7.0 0.00 0.00 0.00 10 1006.7
20200331201555 96 30 3.0 7.0 0.00 0.00 0.00 10 1006.6
20200331201036 96 11 3.0 6.0 0.00 0.00 0.00 10 1006.5
20200331200537 96 46 3.0 7.0 0.00 0.00 0.00 10 1006.5
20200331200107 96 354 3.0 7.0 0.00 0.00 0.00 11 1006.5
20200331195540 96 64 3.0 5.0 0.00 0.00 0.00 10 1006.3
20200331195040 96 50 2.0 10.0 0.00 0.00 0.00 11 1006.3
20200331194606 95 21 3.0 10.0 0.00 0.00 0.00 11 1006.3
20200331194036 96 12 3.0 8.0 0.00 0.00 0.00 11 1006.2
20200331193541 96 35 4.0 7.0 0.00 0.00 0.00 11 1006.1
20200331193106 96 45 4.0 7.0 0.00 0.00 0.00 11 1006.0
20200331192536 95 31 3.0 6.0 0.00 0.00 0.00 11 1006.0
20200331192035 96 354 3.0 6.0 0.00 0.00 0.00 11 1005.9
20200331191559 96 354 3.0 6.0 0.00 0.00 0.00 11 1005.9
20200331191057 96 354 3.0 6.0 0.00 0.00 0.00 11 1005.9
20200331190537 96 359 4.0 6.0 0.00 0.00 0.00 11 1005.9
20200331190044 97 344 3.0 6.0 0.00 0.00 0.00 10 1005.8
20200331185546 97 4 2.0 10.0 0.00 0.00 0.00 10 1005.8
20200331185046 98 40 3.0 10.0 0.00 0.00 0.00 10 1005.8
20200331184601 98 39 4.0 11.0 0.00 0.00 0.00 10 1005.7
20200331184057 99 19 4.0 11.0 0.00 0.00 0.00 10 1005.7
20200331183535 99 19 4.0 9.0 0.00 0.00 0.00 10 1005.6
20200331183034 99 44 3.0 11.0 0.00 0.00 0.00 10 1005.6
20200331182534 99 43 5.0 11.0 0.00 0.00 0.00 10 1005.5
20200331182041 99 4 4.0 9.0 0.00 0.00 0.00 10 1005.3
20200331181548 99 58 4.0 10.0 0.00 0.00 0.00 10 1005.2
20200331181037 99 40 3.0 9.0 0.00 0.00 0.00 9 1005.2
20200331180540 99 35 5.0 9.0 0.00 0.00 0.00 9 1005.0
20200331180133 100 30 5.0 10.0 0.00 0.00 0.00 9 1004.9
20200331175533 100 41 5.0 10.0 0.00 0.00 0.00 9 1004.9
20200331175038 100 41 5.0 9.0 0.00 0.00 0.00 9 1004.8
20200331174607 100 32 3.0 9.0 0.00 0.00 0.00 9 1004.9
20200331174032 100 34 4.0 9.0 0.00 0.00 0.00 9 1004.7
20200331173532 100 31 4.0 9.0 0.00 0.00 0.00 9 1004.7
20200331173131 100 45 4.0 8.0 0.00 0.00 0.00 9 1004.6
20200331172535 101 23 3.0 7.0 0.00 0.00 0.00 9 1004.6
20200331172033 101 27 4.0 7.0 0.00 0.00 0.00 9 1004.4
20200331171605 101 40 4.0 7.0 0.00 0.00 0.00 9 1004.3
20200331171036 101 50 3.0 9.0 0.00 0.00 0.00 9 1004.3
20200331170540 102 67 5.0 9.0 0.00 0.00 0.00 9 1004.3
20200331170115 102 57 4.0 10.0 0.00 0.00 0.00 9 1004.2
20200331165604 102 62 5.0 10.0 0.00 0.00 0.00 9 1004.2
20200331165034 102 69 6.0 11.0 0.00 0.00 0.00 9 1004.2
20200331164527 103 68 5.0 10.0 0.00 0.00 0.00 9 1004.2
20200331164022 103 61 6.0 10.0 0.00 0.00 0.00 9 1004.2
20200331163519 103 62 5.0 13.0 0.00 0.00 0.00 9 1004.2
20200331163022 103 60 5.0 14.0 0.00 0.00 0.00 8 1004.2
20200331162540 103 54 8.0 12.0 0.00 0.00 0.00 8 1004.2
20200331162018 104 37 7.0 12.0 0.00 0.00 0.00 8 1004.2
20200331161524 104 26 4.0 11.0 0.00 0.00 0.00 8 1004.2
20200331161019 104 63 5.0 11.0 0.00 0.00 0.00 8 1004.0
20200331160516 104 57 5.0 9.0 0.00 0.00 0.00 8 1004.0
20200331160041 104 83 4.0 11.0 0.00 0.00 0.00 8 1004.1
20200331155520 104 26 6.0 12.0 0.00 0.00 0.00 8 1004.1
20200331155015 104 86 4.0 13.0 0.00 0.00 0.00 8 1004.3
20200331154603 104 42 7.0 13.0 0.00 0.00 0.00 8 1004.3
20200331154013 105 131 5.0 10.0 0.00 0.00 0.00 8 1004.3
20200331153513 105 78 5.0 11.0 0.00 0.00 0.00 8 1004.3
20200331153014 105 87 6.0 11.0 0.00 0.00 0.00 8 1004.4
20200331152513 105 82 6.0 11.0 0.00 0.00 0.00 8 1004.3
20200331152013 104 110 7.0 11.0 0.00 0.00 0.00 8 1004.2
20200331151512 105 150 5.0 10.0 0.00 0.00 0.00 8 1004.3
20200331151013 105 94 5.0 12.0 0.00 0.00 0.00 8 1004.3
20200331150512 105 87 8.0 12.0 0.00 0.00 0.00 8 1004.3
20200331150020 105 73 7.0 12.0 0.00 0.00 0.00 8 1004.3
20200331145508 106 21 6.0 14.0 0.00 0.00 0.00 8 1004.3
20200331145019 105 48 8.0 14.0 0.00 0.00 0.00 7 1004.3
20200331144549 105 70 5.0 16.0 0.00 0.00 0.00 8 1004.3
20200331144007 106 40 10.0 16.0 0.00 0.00 0.00 7 1004.3
20200331143507 106 14 4.0 15.0 0.00 0.00 0.00 7 1004.3
20200331143014 106 73 7.0 15.0 0.00 0.00 0.00 7 1004.2
20200331142616 106 72 8.0 15.0 0.00 0.00 0.00 7 1004.3
20200331142059 106 40 7.0 14.0 0.00 0.00 0.00 7 1004.3
20200331141858 106 92 6.0 15.0 0.00 0.00 0.00 7 1004.2
20200331141120 106 81 10.0 20.0 0.00 0.00 0.00 7 1004.5
20200331140554 106 71 7.0 14.0 0.00 0.00 0.00 7 1004.4
20200331140237 105 149 7.0 14.0 0.00 0.00 0.00 7 1004.5
20200331135553 106 115 9.0 14.0 0.00 0.00 0.00 7 1004.5
20200331135052 105 44 4.0 14.0 0.00 0.00 0.00 7 1004.6
20200331134600 105 53 4.0 19.0 0.00 0.00 0.00 7 1004.7
20200331134050 106 66 10.0 19.0 0.00 0.00 0.00 7 1004.8
20200331133548 106 101 7.0 13.0 0.00 0.00 0.00 7 1004.8
20200331133056 106 56 5.0 13.0 0.00 0.00 0.00 7 1004.8
20200331132546 105 70 7.0 16.0 0.00 0.00 0.00 7 1004.8
20200331132045 105 83 9.0 17.0 0.00 0.00 0.00 7 1005.0
20200331131702 105 84 8.0 17.0 0.00 0.00 0.00 7 1005.0
20200331131105 105 128 10.0 16.0 0.00 0.00 0.00 7 1005.1
20200331130544 105 97 8.0 17.0 0.00 0.00 0.00 7 1005.1
20200331130102 105 70 9.0 17.0 0.00 0.00 0.00 7 1005.2
20200331125551 105 59 7.0 16.0 0.00 0.00 0.00 7 1005.2
20200331125049 106 103 9.0 16.0 0.00 0.00 0.00 7 1005.3
20200331124557 105 79 6.0 18.0 0.00 0.00 0.00 7 1005.4
20200331124041 105 79 11.0 18.0 0.00 0.00 0.00 7 1005.6
20200331123543 105 83 9.0 17.0 0.00 0.00 0.00 7 1005.5
20200331123113 105 122 5.0 19.0 0.00 0.00 0.00 7 1005.5
20200331122606 105 77 10.0 19.0 0.00 0.00 0.00 7 1005.7
20200331122046 105 51 8.0 16.0 0.00 0.00 0.00 7 1005.5
20200331121615 105 100 10.0 18.0 0.00 0.00 0.00 7 1005.8
20200331121052 105 112 10.0 19.0 0.00 0.00 0.00 7 1005.8
20200331120538 104 82 8.0 17.0 0.00 0.00 0.00 7 1005.6
20200331120045 104 108 10.0 18.0 0.00 0.00 0.00 7 1005.8
20200331115540 104 74 9.0 17.0 0.00 0.00 0.00 7 1005.7
20200331115036 104 82 12.0 18.0 0.00 0.00 0.00 7 1006.0
20200331114629 104 49 12.0 18.0 0.00 0.00 0.00 7 1006.0
20200331114047 104 88 12.0 18.0 0.00 0.00 0.00 7 1006.1
20200331113533 104 74 10.0 17.0 0.00 0.00 0.00 7 1006.3
20200331113046 104 56 12.0 19.0 0.00 0.00 0.00 7 1006.4
20200331112537 104 57 11.0 19.0 0.00 0.00 0.00 7 1006.5
20200331112033 104 70 10.0 19.0 0.00 0.00 0.00 7 1006.6
20200331111605 103 56 9.0 18.0 0.00 0.00 0.00 7 1006.7
20200331111030 103 79 10.0 20.0 0.00 0.00 0.00 7 1006.8
20200331110532 102 73 9.0 20.0 0.00 0.00 0.00 7 1006.9
20200331110030 103 50 11.0 19.0 0.00 0.00 0.00 7 1007.1
20200331105529 103 75 10.0 17.0 0.00 0.00 0.00 7 1006.9
20200331105029 103 91 11.0 17.0 0.00 0.00 0.00 7 1007.1
20200331104528 103 88 10.0 17.0 0.00 0.00 0.00 7 1007.2
20200331104035 103 51 10.0 17.0 0.00 0.00 0.00 7 1007.2
20200331103526 103 85 11.0 18.0 0.00 0.00 0.00 7 1007.3
20200331103114 102 99 11.0 18.0 0.00 0.00 0.00 7 1007.4
20200331102524 102 77 8.0 20.0 0.00 0.00 0.00 7 1007.6
20200331102022 102 63 11.0 19.0 0.00 0.00 0.00 7 1007.6
20200331101534 102 84 11.0 17.0 0.00 0.00 0.00 7 1007.6
20200331101021 101 77 9.0 17.0 0.00 0.00 0.00 7 1007.7
20200331100521 101 66 10.0 19.0 0.00 0.00 0.00 7 1007.7
20200331100042 101 76 11.0 19.0 0.00 0.00 0.00 7 1007.7
20200331095521 102 76 12.0 18.0 0.00 0.00 0.00 7 1007.9
20200331095019 101 76 11.0 17.0 0.00 0.00 0.00 7 1007.9
20200331094521 101 66 11.0 17.0 0.00 0.00 0.00 7 1008.1
20200331094017 100 78 10.0 19.0 0.00 0.00 0.00 8 1008.1
20200331093514 100 84 12.0 19.0 0.00 0.00 0.00 8 1008.1
20200331093036 100 64 11.0 18.0 0.00 0.00 0.00 8 1008.2
20200331092516 99 64 12.0 18.0 0.00 0.00 0.00 8 1008.1
20200331092021 99 74 11.0 17.0 0.00 0.00 0.00 8 1008.2
20200331091516 98 60 9.0 16.0 0.00 0.00 0.00 8 1008.1
20200331091014 98 70 10.0 16.0 0.00 0.00 0.00 8 1008.2